Time,TemperatureF,DewpointF,PressureIn,WindDirection,WindDirectionDegrees,WindSpeedMPH,WindSpeedGustMPH,Humidity,HourlyPrecipIn,Conditions,Clouds,dailyrainin,SolarRadiationWatts/m^2,SoftwareType,DateUTC
2013-06-22 10:02:00,81.0,69.0,-100.00,South,175,13.0,20.0,66,0.00,,,0.00,360.000000,,2013-06-22 15:02:00,
2013-06-22 10:34:00,84.0,68.0,-100.00,South,177,11.0,19.0,58,0.00,,,0.00,598.000000,,2013-06-22 15:34:00,
2013-06-22 10:43:00,84.0,68.0,-100.00,South,177,11.0,19.0,58,0.00,,,0.00,598.000000,,2013-06-22 15:43:00,
2013-06-22 10:53:00,84.0,68.0,-100.00,South,177,11.0,19.0,58,0.00,,,0.00,598.000000,,2013-06-22 15:53:00,
2013-06-22 11:02:00,84.0,68.0,-100.00,South,177,11.0,19.0,58,0.00,,,0.00,598.000000,,2013-06-22 16:02:00,
2013-06-22 11:34:00,87.0,65.0,-100.00,South,174,13.0,19.0,48,0.00,,,0.00,806.000000,,2013-06-22 16:34:00,
2013-06-22 11:43:00,87.0,65.0,-100.00,South,174,13.0,19.0,48,0.00,,,0.00,806.000000,,2013-06-22 16:43:00,
2013-06-22 11:52:00,87.0,65.0,-100.00,South,174,13.0,19.0,48,0.00,,,0.00,806.000000,,2013-06-22 16:52:00,
2013-06-22 12:02:00,87.0,65.0,-100.00,South,174,13.0,19.0,48,0.00,,,0.00,806.000000,,2013-06-22 17:02:00,
2013-06-22 12:34:00,90.0,65.0,-100.00,South,176,13.0,22.0,44,0.00,,,0.00,953.000000,,2013-06-22 17:34:00,
2013-06-22 12:43:00,90.0,65.0,-100.00,South,176,13.0,22.0,44,0.00,,,0.00,953.000000,,2013-06-22 17:43:00,
2013-06-22 12:52:00,90.0,65.0,-100.00,South,176,13.0,22.0,44,0.00,,,0.00,953.000000,,2013-06-22 17:52:00,
2013-06-22 13:02:00,90.0,65.0,-100.00,South,176,13.0,22.0,44,0.00,,,0.00,953.000000,,2013-06-22 18:02:00,
2013-06-22 13:34:00,92.0,61.0,-100.00,SSE,167,15.0,25.0,36,0.00,,,0.00,1067.000000,,2013-06-22 18:34:00,
2013-06-22 13:43:00,92.0,61.0,-100.00,SSE,167,15.0,25.0,36,0.00,,,0.00,1067.000000,,2013-06-22 18:43:00,
2013-06-22 13:52:00,92.0,61.0,-100.00,SSE,167,15.0,25.0,36,0.00,,,0.00,1067.000000,,2013-06-22 18:52:00,
2013-06-22 14:01:00,92.0,61.0,-100.00,SSE,167,15.0,25.0,36,0.00,,,0.00,1067.000000,,2013-06-22 19:01:00,
2013-06-22 14:33:00,94.0,60.0,-100.00,South,173,14.0,27.0,33,0.00,,,0.00,1096.000000,,2013-06-22 19:33:00,
2013-06-22 14:43:00,94.0,60.0,-100.00,South,173,14.0,27.0,33,0.00,,,0.00,1096.000000,,2013-06-22 19:43:00,
2013-06-22 14:53:00,94.0,60.0,-100.00,South,173,14.0,27.0,33,0.00,,,0.00,1096.000000,,2013-06-22 19:53:00,
2013-06-22 15:02:00,94.0,60.0,-100.00,South,173,14.0,27.0,33,0.00,,,0.00,1096.000000,,2013-06-22 20:02:00,
2013-06-22 15:34:00,94.0,61.0,-100.00,South,171,15.0,25.0,34,0.00,,,0.00,1062.000000,,2013-06-22 20:34:00,
2013-06-22 15:43:00,94.0,61.0,-100.00,South,171,15.0,25.0,34,0.00,,,0.00,1062.000000,,2013-06-22 20:43:00,
2013-06-22 15:53:00,94.0,61.0,-100.00,South,171,15.0,25.0,34,0.00,,,0.00,1062.000000,,2013-06-22 20:53:00,
2013-06-22 16:01:00,94.0,61.0,-100.00,South,171,15.0,25.0,34,0.00,,,0.00,1062.000000,,2013-06-22 21:01:00,
2013-06-22 16:34:00,95.0,61.0,-100.00,South,178,14.0,26.0,33,0.00,,,0.00,972.000000,,2013-06-22 21:34:00,
2013-06-22 16:43:00,95.0,61.0,-100.00,South,178,14.0,26.0,33,0.00,,,0.00,972.000000,,2013-06-22 21:43:00,
2013-06-22 16:53:00,95.0,61.0,-100.00,South,178,14.0,26.0,33,0.00,,,0.00,972.000000,,2013-06-22 21:53:00,
2013-06-22 17:02:00,95.0,61.0,-100.00,South,178,14.0,26.0,33,0.00,,,0.00,972.000000,,2013-06-22 22:02:00,
2013-06-22 17:33:00,95.0,61.0,-100.00,South,177,14.0,24.0,33,0.00,,,0.00,560.000000,,2013-06-22 22:33:00,
2013-06-22 17:43:00,95.0,61.0,-100.00,South,177,14.0,24.0,33,0.00,,,0.00,560.000000,,2013-06-22 22:43:00,
2013-06-22 17:52:00,95.0,61.0,-100.00,South,177,14.0,24.0,33,0.00,,,0.00,560.000000,,2013-06-22 22:52:00,
2013-06-22 18:01:00,95.0,61.0,-100.00,South,177,14.0,24.0,33,0.00,,,0.00,560.000000,,2013-06-22 23:01:00,
2013-06-22 18:34:00,95.0,60.0,-100.00,SSE,157,13.0,22.0,32,0.00,,,0.00,535.000000,,2013-06-22 23:34:00,
2013-06-22 18:43:00,95.0,60.0,-100.00,SSE,157,13.0,22.0,32,0.00,,,0.00,535.000000,,2013-06-22 23:43:00,
2013-06-22 18:52:00,95.0,60.0,-100.00,SSE,157,13.0,22.0,32,0.00,,,0.00,535.000000,,2013-06-22 23:52:00,
2013-06-22 19:01:00,95.0,60.0,-100.00,SSE,157,13.0,22.0,32,0.00,,,0.00,535.000000,,2013-06-23 00:01:00,
2013-06-22 19:34:00,94.0,59.0,-100.00,SSE,157,12.0,21.0,31,0.00,,,0.00,336.000000,,2013-06-23 00:34:00,
2013-06-22 19:42:00,94.0,59.0,-100.00,SSE,157,12.0,21.0,31,0.00,,,0.00,336.000000,,2013-06-23 00:42:00,
2013-06-22 19:53:00,94.0,59.0,-100.00,SSE,157,12.0,21.0,31,0.00,,,0.00,336.000000,,2013-06-23 00:53:00,
2013-06-22 20:01:00,94.0,59.0,-100.00,SSE,157,12.0,21.0,31,0.00,,,0.00,336.000000,,2013-06-23 01:01:00,
2013-06-22 20:32:00,91.0,57.0,-100.00,SSE,154,12.0,21.0,32,0.00,,,0.00,147.000000,,2013-06-23 01:32:00,
2013-06-22 20:42:00,91.0,57.0,-100.00,SSE,154,12.0,21.0,32,0.00,,,0.00,147.000000,,2013-06-23 01:42:00,
2013-06-22 20:52:00,91.0,57.0,-100.00,SSE,154,12.0,21.0,32,0.00,,,0.00,147.000000,,2013-06-23 01:52:00,
2013-06-22 21:01:00,91.0,57.0,-100.00,SSE,154,12.0,21.0,32,0.00,,,0.00,147.000000,,2013-06-23 02:01:00,
2013-06-22 21:31:00,89.0,56.0,-100.00,SSE,152,10.0,19.0,33,0.00,,,0.00,18.000000,,2013-06-23 02:31:00,
2013-06-22 21:41:00,89.0,56.0,-100.00,SSE,152,10.0,19.0,33,0.00,,,0.00,18.000000,,2013-06-23 02:41:00,
2013-06-22 21:52:00,89.0,56.0,-100.00,SSE,152,10.0,19.0,33,0.00,,,0.00,18.000000,,2013-06-23 02:52:00,
2013-06-22 22:01:00,89.0,56.0,-100.00,SSE,152,10.0,19.0,33,0.00,,,0.00,18.000000,,2013-06-23 03:01:00,
2013-06-22 22:31:00,86.0,57.0,-100.00,SE,136,9.0,15.0,38,0.00,,,0.00,0.000000,,2013-06-23 03:31:00,
2013-06-22 22:41:00,86.0,57.0,-100.00,SE,136,9.0,15.0,38,0.00,,,0.00,0.000000,,2013-06-23 03:41:00,
2013-06-22 22:51:00,86.0,57.0,-100.00,SE,136,9.0,15.0,38,0.00,,,0.00,0.000000,,2013-06-23 03:51:00,
2013-06-22 23:01:00,86.0,57.0,-100.00,SE,136,9.0,15.0,38,0.00,,,0.00,0.000000,,2013-06-23 04:01:00,
2013-06-22 23:31:00,85.0,59.0,-100.00,SSE,155,10.0,16.0,42,0.00,,,0.00,0.000000,,2013-06-23 04:31:00,
2013-06-22 23:42:00,85.0,59.0,-100.00,SSE,155,10.0,16.0,42,0.00,,,0.00,0.000000,,2013-06-23 04:42:00,
2013-06-22 23:52:00,85.0,59.0,-100.00,SSE,155,10.0,16.0,42,0.00,,,0.00,0.000000,,2013-06-23 04:52:00,